SCP
0 0 0 0 0 0 0 0 0 0 0 0 0 0 0 0 0 0 0 0 0 0 0 0 0 0 0 0 0 0 0 0 0 0 0 0 0 0 0 0 0 0 0
0 0 0 0 0 0 0 0 0 0 0 0 0 0 0 0 0 0 0 0 0 0 0 0 0 0 0 0 0 0 0 0 0 0 0 0 0 0 0 0 0 0 0
0 0 0 0 0 0 0 0 0 0 0 0 0 0 0 0 0 0 0 0 0 0 0 0 0 0 0 0 0 0 0 0 0 0 0 0 0 0 0 0 0 0 0
0 0 0 0 0 0 0 0 0 0 0 0 0 0 0 0 0 0 0 0 0 0 0 0 0 0 0 0 0 0 0 0 0 0 0 0 0 0 0 0 0 0 0
0 0 0 0 0 0 0 0 0 0 0 0 0 0 0 0 0 0 0 0 0 0 0 0 0 0 0 0 0 0 0 0 0 0 0 0 0 0 0 0 0 0 0
0 0 0 0 0 0 0 0 0 0 0 0 0 0 0 0 0 0 0 0 0 0 0 0 0 0 0 0 0 0 0 0 0 0 0 0 0 0 0 0 0 0 0
0 0 0 0 0 0 0 0 0 0 0 0 0 0 0 0 0 0 0 0 0 0 0 0 0 0 0 0 0 0 0 0 0 0 0 0 0 0 0 0 0 0 0
0 0 0 0 0 0 0 0 0 0 0 0 0 0 0 0 0 0 0 0 0 0 0 0 0 0 0 0 0 0 0 0 0 0 0 0 0 0 0 0 0 0 0
0 0 0 0 0 0 0 0 0 0 0 0 0 0 0 0 0 0 0 0 0 0 0 0 0 0 0 0 0 0 0 0 0 0 0 0 0 0 0 0 0 0 0
0 0 0 0 0 0 0 0 0 0 0 0 0 0 0 0 0 0 0 0 0 0 0 0 0 0 0 0 0 0 0 0 0 0 0 0 0 0 0 0 0 0 0
0 0 0 0 0 0 0 0 0 0 0 0 0 0 0 0 0 0 0 0 0 0 0 0 0 0 0 0 0 0 0 0 0 0 0 0 0 0 0 0 0 0 0
0 0 0 0 0 0 0 0 0 0 0 0 0 0 0 0 0 0 0 0 0 0 0 0 0 0 0 0 0 0 0 0 0 0 0 0 0 0 0 0 0 0 0
0 0 0 0 0 0 0 0 0 0 0 0 0 0 0 0 0 0 0 0 0 0 0 0 0 0 0 0 0 0 0 0 0 0 0 0 0 0 0 0 0 0 0
0 0 0 0 0 0 0 0 0 0 0 0 0 0 0 0 0 0 0 0 0 0 0 0 0 0 0 0 0 0 0 0 0 0 0 0 0 0 0 0 0 0 0
0 0 0 0 0 0 0 0 0 0 0 0 0 0 0 0 0 0 0 0 0 0 0 0 0 0 0 0 0 0 0 0 0 0 0 0 0 0 0 0 0 0 0
0 0 0 0 0 0 0 0 0 0 0 0 0 0 0 0 0 0 0 0 0 0 0 0 0 0 0 0 0 0 0 0 0 0 0 0 0 0 0 0 0 0 0
0 0 0 0 0 0 0 0 0 0 0 0 0 0 0 0 0 0 0 0 0 0 0 0 0 0 0 0 0 0 0 0 0 0 0 0 0 0 0 0 0 0 0
0 0 0 0 0 0 0 0 0 0 0 0 0 0 0 0 0 0 0 0 0 0 0 0 0 0 0 0 0 0 0 0 0 0 0 0 0 0 0 0 0 0 0
0 0 0 0 0 0 0 0 0 0 0 0 0 0 0 0 0 0 0 0 0 0 0 0 0 0 0 0 0 0 0 0 0 0 0 0 0 0 0 0 0 0 0
0 0 0 0 0 0 0 0 0 0 0 0 0 0 0 0 0 0 0 0 0 0 0 0 0 0 0 0 0 0 0 0 0 0 0 0 0 0 0 0 0 0 0
0 0 0 0 0 0 0 0 0 0 0 0 0 0 0 0 0 0 0 0 0 0 0 0 0 0 0 0 0 0 0 0 0 0 0 0 0 0 0 0 0 0 0
0 0 0 0 0 0 0 0 0 0 0 0 0 0 0 0 0 0 0 0 0 0 0 0 0 0 0 0 0 0 0 0 0 0 0 0 0 0 0 0 0 0 0
0 0 0 0 0 0 0 0 0 0 0 0 0 0 0 0 0 0 0 0 0 0 0 0 0 0 0 0 0 0 0 0 0 0 0 0 0 0 0 0 0 0 0
0 0 0 0 0 0 0 0 0 0 0 0 0 0 0 0 0 0 0 0 0 0 0 0 0 0 0 0 0 0 0 0 0 0 0 0 0 0 0 0 0 0 0
0 0 0 0 0 0 0 0 0 0 0 0 0 0 0 0 0 0 0 0 0 0 0 0 0 0 0 0 0 0 0 0 0 0 0 0 0 0 0 0 0 0 0
0 0 0 0 0 0 0 0 0 0 0 0 0 0 0 0 0 0 0 0 0 0 0 0 0 0 0 0 0 0 0 0 0 0 0 0 0 0 0 0 0 0 0
Wind_Speed_500mb
35 34 33 31 29 26 24 25 26 26 25 26 26 24 25 23 22 20 20 17 15 18 21 21 21 22 25 24 23 21 21 21 20 19 16 16 6 8 5 7 15 25 28
33 33 32 31 29 27 25 24 24 25 25 26 26 25 23 21 18 19 17 14 14 12 16 20 21 22 23 24 22 21 22 19 19 19 18 20 19 15 10 9 11 21 32
33 32 32 31 28 27 24 24 24 24 24 26 25 25 22 19 16 15 13 13 13 14 17 20 22 23 24 26 26 23 25 25 24 21 17 15 19 21 24 6 12 14 18
34 33 33 31 29 27 25 24 23 24 26 25 25 25 23 19 16 13 12 11 10 12 16 21 22 23 25 25 25 24 26 27 27 26 22 20 19 21 18 21 21 24 24
36 34 34 32 30 28 27 25 24 22 28 28 26 26 24 20 15 11 9 8 7 10 15 21 24 25 26 25 24 23 25 27 29 27 25 23 23 27 28 26 22 19 25
38 37 36 34 33 31 29 28 24 28 27 27 29 27 25 20 12 10 8 5 6 9 15 20 24 25 25 24 23 23 23 24 22 24 24 23 21 18 18 23 28 30 25
39 39 38 37 35 32 29 27 27 28 32 33 34 30 26 17 13 12 9 6 1 9 16 24 27 26 25 25 25 25 23 22 21 19 15 19 25 25 26 24 26 24 31
39 39 37 36 33 32 32 29 24 29 32 36 31 29 21 19 18 15 12 9 5 13 21 27 29 29 29 29 29 30 30 28 27 28 27 27 27 29 28 32 30 30 30
40 37 36 34 33 31 30 30 27 24 31 35 30 15 13 13 27 23 19 15 11 14 24 29 30 30 30 31 32 32 34 35 37 37 36 35 34 34 34 37 34 31 34
42 39 37 36 34 33 32 31 29 25 22 24 32 23 16 16 15 15 19 18 14 22 28 26 24 27 31 35 34 33 36 38 40 42 41 39 35 35 35 37 36 36 34
45 42 40 37 35 34 30 28 26 24 23 21 19 19 14 10 9 9 11 14 17 20 21 22 28 28 35 34 32 37 46 45 43 42 42 38 34 32 33 39 42 44 43
52 48 43 39 36 33 30 28 25 22 19 16 15 13 7 7 5 4 8 13 18 19 24 27 22 37 35 32 40 46 46 44 43 42 40 35 33 35 39 41 43 45 44
58 53 48 43 38 33 30 25 22 19 16 11 9 6 5 2 1 5 10 16 23 32 27 25 39 38 31 45 47 47 46 46 45 43 43 42 44 47 49 49 44 43 43
55 49 45 40 37 32 29 24 20 18 12 8 6 3 1 2 4 8 14 19 26 30 37 41 47 40 50 51 50 48 47 48 48 48 48 49 51 52 50 49 45 46 42
54 48 44 41 36 32 27 22 15 12 12 10 8 1 3 7 11 15 19 24 26 19 33 45 45 50 53 52 51 52 50 50 49 51 52 51 52 53 51 49 47 45 45
57 54 48 44 43 34 28 25 23 19 13 11 5 1 7 9 14 18 22 26 29 31 29 44 49 51 51 52 50 50 49 49 48 48 50 53 55 56 54 48 45 46 45
69 63 61 55 42 34 38 33 26 19 14 8 4 4 9 12 17 22 25 28 31 36 42 49 51 50 50 48 46 44 43 45 46 46 45 46 48 51 57 59 52 46 45
65 62 52 46 47 44 37 30 23 18 12 8 7 8 12 16 20 26 31 33 35 40 45 52 55 53 51 47 46 46 44 47 50 48 47 48 49 46 46 50 54 59 60
69 59 54 50 45 39 34 28 22 17 13 9 8 11 17 23 28 31 35 37 39 40 45 51 55 56 56 53 53 52 49 50 50 49 49 50 46 44 45 49 48 50 53
69 61 54 47 43 39 32 26 22 16 11 9 11 17 24 29 33 36 39 41 42 44 45 49 54 56 57 56 55 56 56 52 54 51 49 48 48 49 49 48 49 50 49
64 59 51 46 41 35 29 25 19 12 9 11 17 23 28 33 37 39 42 42 43 44 45 49 52 54 55 54 53 53 57 58 56 55 57 47 54 56 53 53 52 46 47
62 52 46 42 42 34 27 20 14 10 13 17 22 28 34 37 38 38 37 38 39 42 46 48 51 54 50 51 52 48 52 53 46 40 47 58 58 59 59 56 50 49 53
57 51 54 46 36 28 22 15 12 14 20 26 32 36 36 37 38 40 40 39 40 42 43 42 48 52 55 50 47 48 46 47 52 55 56 61 60 63 58 52 54 55 49
54 58 48 39 31 24 17 15 16 21 28 32 35 38 40 39 37 39 39 38 38 37 36 38 41 47 49 46 46 46 47 55 58 62 61 64 57 62 60 59 56 47 48
57 48 40 33 26 19 15 17 22 28 32 38 41 38 34 33 33 34 35 37 36 40 36 37 38 38 40 41 41 48 52 54 58 60 52 55 52 61 67 63 56 58 59
47 42 36 28 20 17 17 22 29 36 39 37 33 30 31 32 30 28 25 33 40 38 38 41 43 43 42 44 44 46 52 51 56 59 46 41 51 52 53 50 67 69 68
Wind_Direction_500mb
173 169 166 163 158 153 148 143 141 138 138 137 134 128 123 118 103 98 100 95 93 80 66 58 53 48 46 37 30 29 20 18 18 20 24 14 7 250 273 311 336 328 328
177 174 172 167 164 158 154 150 145 141 142 141 139 135 132 126 115 96 107 92 87 73 52 45 40 35 31 35 31 19 16 22 14 16 23 22 12 19 343 280 355 353 350
176 176 176 172 169 162 161 155 150 148 150 146 145 142 138 130 124 108 107 96 88 66 48 38 31 24 21 17 16 22 14 12 11 5 11 21 356 19 8 14 336 349 338
176 177 178 177 173 168 165 162 159 156 157 152 149 147 145 139 132 113 106 95 82 59 39 28 22 18 15 15 17 16 13 11 8 3 1 3 3 7 7 359 353 348 346
177 180 180 180 178 175 169 167 167 164 159 156 154 153 150 143 134 124 122 99 71 50 29 21 14 8 6 5 5 5 6 7 11 13 3 4 3 4 356 353 347 349 346
181 182 184 184 181 179 176 171 172 164 162 161 157 154 154 155 152 151 148 119 75 27 13 8 360 356 355 353 353 351 350 353 5 9 2 352 352 338 339 336 334 337 335
187 186 189 187 185 180 177 173 173 169 163 162 161 152 149 157 166 160 159 154 70 355 353 350 346 343 342 343 340 338 338 338 348 349 330 336 338 335 337 341 322 317 329
193 191 193 191 187 185 179 176 179 174 169 165 172 159 146 150 169 179 183 198 283 336 336 338 335 333 332 332 330 328 325 323 319 319 332 334 330 325 323 321 310 313 309
198 195 192 193 189 186 187 181 178 182 187 181 184 179 168 184 185 207 217 238 290 326 332 330 328 328 331 332 328 324 322 323 319 316 316 321 325 326 323 311 306 300 294
196 194 193 193 191 188 189 186 185 188 188 185 181 202 194 172 176 177 213 234 261 313 320 323 328 331 334 330 327 326 324 320 316 314 313 319 326 324 319 301 297 295 285
193 195 193 193 194 190 188 188 186 184 184 193 193 175 163 172 180 178 192 231 270 305 323 325 329 331 328 325 320 321 320 319 316 312 312 322 325 315 308 310 308 306 305
194 194 192 192 193 191 190 190 184 181 182 182 186 175 187 201 221 255 272 290 311 322 329 327 326 327 326 323 319 319 319 319 319 319 316 319 321 313 310 312 311 311 309
195 193 189 190 191 189 189 189 184 181 179 184 202 194 209 227 306 333 320 323 324 326 329 327 330 333 329 324 326 326 325 325 325 325 322 318 314 314 314 314 316 312 308
194 190 185 187 187 185 187 186 185 184 185 208 230 189 198 339 349 333 331 333 331 323 323 327 331 332 327 327 328 326 326 327 327 328 327 323 318 316 314 311 311 309 310
190 185 183 182 181 180 182 182 190 207 201 195 190 154 6 341 338 336 331 328 331 324 316 321 325 323 322 324 326 324 324 324 326 326 325 322 319 316 312 310 311 311 310
187 185 186 184 180 187 198 206 204 198 179 180 180 28 315 319 324 325 328 328 324 316 304 313 318 320 320 320 318 313 312 312 315 317 319 318 316 315 313 313 311 307 305
199 191 187 197 198 191 194 196 190 185 186 200 246 287 291 318 323 322 324 326 322 317 310 311 315 319 317 315 313 312 314 317 319 319 317 315 310 307 304 303 305 304 297
204 196 190 177 177 183 183 181 187 185 193 211 244 274 302 314 319 324 323 321 317 313 311 311 314 317 316 318 313 311 313 315 316 317 316 316 314 315 310 303 298 296 297
183 169 170 176 180 184 185 183 193 199 200 215 260 291 310 315 318 317 315 312 311 308 307 307 311 316 318 320 315 313 313 313 311 313 316 313 312 315 316 314 306 301 298
163 164 176 181 184 183 186 193 198 197 209 240 282 304 310 313 315 313 311 311 308 307 307 306 308 313 317 319 316 315 314 314 312 314 313 311 312 317 316 315 309 308 308
163 168 171 182 182 188 193 195 195 209 243 284 299 307 311 313 312 312 310 309 308 308 307 306 307 311 317 319 315 313 310 312 314 315 314 315 317 320 320 317 312 308 312
167 172 178 194 192 188 192 198 213 248 277 291 303 310 313 309 308 305 303 304 306 306 304 304 305 305 311 315 315 308 306 310 312 313 312 315 319 319 317 313 314 313 312
166 169 178 183 189 193 202 217 246 275 293 305 310 312 310 311 309 308 307 305 300 297 294 296 298 302 306 310 310 304 304 304 304 306 306 307 312 315 316 310 318 317 312
169 178 180 183 189 195 217 246 275 295 307 311 313 313 314 314 313 312 312 310 308 303 306 301 299 302 302 305 305 303 303 305 303 304 307 303 309 313 315 316 320 319 323
175 176 180 186 197 212 242 276 295 304 306 309 310 311 309 309 314 316 312 312 315 309 308 303 299 299 300 300 300 298 297 306 301 304 299 298 307 312 316 318 322 321 321
177 181 186 193 211 237 269 295 301 303 305 306 307 309 308 313 315 313 317 310 308 319 320 314 307 308 308 303 296 292 299 297 297 299 302 292 304 314 318 316 320 319 321
Wind_Speed_850mb
35 34 33 31 29 26 24 25 26 26 25 26 26 24 25 23 22 20 20 17 15 18 21 21 21 22 25 24 23 21 21 21 20 19 16 16 6 8 5 7 15 25 28
33 33 32 31 29 27 25 24 24 25 25 26 26 25 23 21 18 19 17 14 14 12 16 20 21 22 23 24 22 21 22 19 19 19 18 20 19 15 10 9 11 21 32
33 32 32 31 28 27 24 24 24 24 24 26 25 25 22 19 16 15 13 13 13 14 17 20 22 23 24 26 26 23 25 25 24 21 17 15 19 21 24 6 12 14 18
34 33 33 31 29 27 25 24 23 24 26 25 25 25 23 19 16 13 12 11 10 12 16 21 22 23 25 25 25 24 26 27 27 26 22 20 19 21 18 21 21 24 24
36 34 34 32 30 28 27 25 24 22 28 28 26 26 24 20 15 11 9 8 7 10 15 21 24 25 26 25 24 23 25 27 29 27 25 23 23 27 28 26 22 19 25
38 37 36 34 33 31 29 28 24 28 27 27 29 27 25 20 12 10 8 5 6 9 15 20 24 25 25 24 23 23 23 24 22 24 24 23 21 18 18 23 28 30 25
39 39 38 37 35 32 29 27 27 28 32 33 34 30 26 17 13 12 9 6 1 9 16 24 27 26 25 25 25 25 23 22 21 19 15 19 25 25 26 24 26 24 31
39 39 37 36 33 32 32 29 24 29 32 36 31 29 21 19 18 15 12 9 5 13 21 27 29 29 29 29 29 30 30 28 27 28 27 27 27 29 28 32 30 30 30
40 37 36 34 33 31 30 30 27 24 31 35 30 15 13 13 27 23 19 15 11 14 24 29 30 30 30 31 32 32 34 35 37 37 36 35 34 34 34 37 34 31 34
42 39 37 36 34 33 32 31 29 25 22 24 32 23 16 16 15 15 19 18 14 22 28 26 24 27 31 35 34 33 36 38 40 42 41 39 35 35 35 37 36 36 34
45 42 40 37 35 34 30 28 26 24 23 21 19 19 14 10 9 9 11 14 17 20 21 22 28 28 35 34 32 37 46 45 43 42 42 38 34 32 33 39 42 44 43
52 48 43 39 36 33 30 28 25 22 19 16 15 13 7 7 5 4 8 13 18 19 24 27 22 37 35 32 40 46 46 44 43 42 40 35 33 35 39 41 43 45 44
58 53 48 43 38 33 30 25 22 19 16 11 9 6 5 2 1 5 10 16 23 32 27 25 39 38 31 45 47 47 46 46 45 43 43 42 44 47 49 49 44 43 43
55 49 45 40 37 32 29 24 20 18 12 8 6 3 1 2 4 8 14 19 26 30 37 41 47 40 50 51 50 48 47 48 48 48 48 49 51 52 50 49 45 46 42
54 48 44 41 36 32 27 22 15 12 12 10 8 1 3 7 11 15 19 24 26 19 33 45 45 50 53 52 51 52 50 50 49 51 52 51 52 53 51 49 47 45 45
57 54 48 44 43 34 28 25 23 19 13 11 5 1 7 9 14 18 22 26 29 31 29 44 49 51 51 52 50 50 49 49 48 48 50 53 55 56 54 48 45 46 45
69 63 61 55 42 34 38 33 26 19 14 8 4 4 9 12 17 22 25 28 31 36 42 49 51 50 50 48 46 44 43 45 46 46 45 46 48 51 57 59 52 46 45
65 62 52 46 47 44 37 30 23 18 12 8 7 8 12 16 20 26 31 33 35 40 45 52 55 53 51 47 46 46 44 47 50 48 47 48 49 46 46 50 54 59 60
69 59 54 50 45 39 34 28 22 17 13 9 8 11 17 23 28 31 35 37 39 40 45 51 55 56 56 53 53 52 49 50 50 49 49 50 46 44 45 49 48 50 53
69 61 54 47 43 39 32 26 22 16 11 9 11 17 24 29 33 36 39 41 42 44 45 49 54 56 57 56 55 56 56 52 54 51 49 48 48 49 49 48 49 50 49
64 59 51 46 41 35 29 25 19 12 9 11 17 23 28 33 37 39 42 42 43 44 45 49 52 54 55 54 53 53 57 58 56 55 57 47 54 56 53 53 52 46 47
62 52 46 42 42 34 27 20 14 10 13 17 22 28 34 37 38 38 37 38 39 42 46 48 51 54 50 51 52 48 52 53 46 40 47 58 58 59 59 56 50 49 53
57 51 54 46 36 28 22 15 12 14 20 26 32 36 36 37 38 40 40 39 40 42 43 42 48 52 55 50 47 48 46 47 52 55 56 61 60 63 58 52 54 55 49
54 58 48 39 31 24 17 15 16 21 28 32 35 38 40 39 37 39 39 38 38 37 36 38 41 47 49 46 46 46 47 55 58 62 61 64 57 62 60 59 56 47 48
57 48 40 33 26 19 15 17 22 28 32 38 41 38 34 33 33 34 35 37 36 40 36 37 38 38 40 41 41 48 52 54 58 60 52 55 52 61 67 63 56 58 59
47 42 36 28 20 17 17 22 29 36 39 37 33 30 31 32 30 28 25 33 40 38 38 41 43 43 42 44 44 46 52 51 56 59 46 41 51 52 53 50 67 69 68
Wind_Direction_850mb
173 169 166 163 158 153 148 143 141 138 138 137 134 128 123 118 103 98 100 95 93 80 66 58 53 48 46 37 30 29 20 18 18 20 24 14 7 250 273 311 336 328 328
177 174 172 167 164 158 154 150 145 141 142 141 139 135 132 126 115 96 107 92 87 73 52 45 40 35 31 35 31 19 16 22 14 16 23 22 12 19 343 280 355 353 350
176 176 176 172 169 162 161 155 150 148 150 146 145 142 138 130 124 108 107 96 88 66 48 38 31 24 21 17 16 22 14 12 11 5 11 21 356 19 8 14 336 349 338
176 177 178 177 173 168 165 162 159 156 157 152 149 147 145 139 132 113 106 95 82 59 39 28 22 18 15 15 17 16 13 11 8 3 1 3 3 7 7 359 353 348 346
177 180 180 180 178 175 169 167 167 164 159 156 154 153 150 143 134 124 122 99 71 50 29 21 14 8 6 5 5 5 6 7 11 13 3 4 3 4 356 353 347 349 346
181 182 184 184 181 179 176 171 172 164 162 161 157 154 154 155 152 151 148 119 75 27 13 8 360 356 355 353 353 351 350 353 5 9 2 352 352 338 339 336 334 337 335
187 186 189 187 185 180 177 173 173 169 163 162 161 152 149 157 166 160 159 154 70 355 353 350 346 343 342 343 340 338 338 338 348 349 330 336 338 335 337 341 322 317 329
193 191 193 191 187 185 179 176 179 174 169 165 172 159 146 150 169 179 183 198 283 336 336 338 335 333 332 332 330 328 325 323 319 319 332 334 330 325 323 321 310 313 309
198 195 192 193 189 186 187 181 178 182 187 181 184 179 168 184 185 207 217 238 290 326 332 330 328 328 331 332 328 324 322 323 319 316 316 321 325 326 323 311 306 300 294
196 194 193 193 191 188 189 186 185 188 188 185 181 202 194 172 176 177 213 234 261 313 320 323 328 331 334 330 327 326 324 320 316 314 313 319 326 324 319 301 297 295 285
193 195 193 193 194 190 188 188 186 184 184 193 193 175 163 172 180 178 192 231 270 305 323 325 329 331 328 325 320 321 320 319 316 312 312 322 325 315 308 310 308 306 305
194 194 192 192 193 191 190 190 184 181 182 182 186 175 187 201 221 255 272 290 311 322 329 327 326 327 326 323 319 319 319 319 319 319 316 319 321 313 310 312 311 311 309
195 193 189 190 191 189 189 189 184 181 179 184 202 194 209 227 306 333 320 323 324 326 329 327 330 333 329 324 326 326 325 325 325 325 322 318 314 314 314 314 316 312 308
194 190 185 187 187 185 187 186 185 184 185 208 230 189 198 339 349 333 331 333 331 323 323 327 331 332 327 327 328 326 326 327 327 328 327 323 318 316 314 311 311 309 310
190 185 183 182 181 180 182 182 190 207 201 195 190 154 6 341 338 336 331 328 331 324 316 321 325 323 322 324 326 324 324 324 326 326 325 322 319 316 312 310 311 311 310
187 185 186 184 180 187 198 206 204 198 179 180 180 28 315 319 324 325 328 328 324 316 304 313 318 320 320 320 318 313 312 312 315 317 319 318 316 315 313 313 311 307 305
199 191 187 197 198 191 194 196 190 185 186 200 246 287 291 318 323 322 324 326 322 317 310 311 315 319 317 315 313 312 314 317 319 319 317 315 310 307 304 303 305 304 297
204 196 190 177 177 183 183 181 187 185 193 211 244 274 302 314 319 324 323 321 317 313 311 311 314 317 316 318 313 311 313 315 316 317 316 316 314 315 310 303 298 296 297
183 169 170 176 180 184 185 183 193 199 200 215 260 291 310 315 318 317 315 312 311 308 307 307 311 316 318 320 315 313 313 313 311 313 316 313 312 315 316 314 306 301 298
163 164 176 181 184 183 186 193 198 197 209 240 282 304 310 313 315 313 311 311 308 307 307 306 308 313 317 319 316 315 314 314 312 314 313 311 312 317 316 315 309 308 308
163 168 171 182 182 188 193 195 195 209 243 284 299 307 311 313 312 312 310 309 308 308 307 306 307 311 317 319 315 313 310 312 314 315 314 315 317 320 320 317 312 308 312
167 172 178 194 192 188 192 198 213 248 277 291 303 310 313 309 308 305 303 304 306 306 304 304 305 305 311 315 315 308 306 310 312 313 312 315 319 319 317 313 314 313 312
166 169 178 183 189 193 202 217 246 275 293 305 310 312 310 311 309 308 307 305 300 297 294 296 298 302 306 310 310 304 304 304 304 306 306 307 312 315 316 310 318 317 312
169 178 180 183 189 195 217 246 275 295 307 311 313 313 314 314 313 312 312 310 308 303 306 301 299 302 302 305 305 303 303 305 303 304 307 303 309 313 315 316 320 319 323
175 176 180 186 197 212 242 276 295 304 306 309 310 311 309 309 314 316 312 312 315 309 308 303 299 299 300 300 300 298 297 306 301 304 299 298 307 312 316 318 322 321 321
177 181 186 193 211 237 269 295 301 303 305 306 307 309 308 313 315 313 317 310 308 319 320 314 307 308 308 303 296 292 299 297 297 299 302 292 304 314 318 316 320 319 321